Location: Unspecified
(0.0000°N, 0.0000°E)
Time: 21:06:00
(UTC+00:00)

ACS3 Solar Sail - Pass Details

Date: 07 November 2024
Orbit: 961 x 1024 km, 97.5° (Epoch: 02 November)

Event Time Altitude Azimuth Distance (km) Brightness Sun altitude
Rises 19:15:43 0° 152° (SSE) 3,758 4.8 -22.0°
Reaches altitude 10° 19:18:26 10° 144° (SE) 2,806 4.0 -22.6°
Enters shadow 19:20:49 22° 130° (SE) 2,063 3.2 -23.2°
